McKinney, TX

6:50 AM CDT on June 25, 2017 (GMT -0500)
Collin County Regional

Weather History for KTKI - May, 2014

Change the Weather History Date:

Saturday, May 10, 2014

  Actual Average (KADS) Record (KADS)
Temperature  
Mean Temperature 74 °F -  
Max Temperature 86 °F 80 °F 93 °F (2016)
Min Temperature 64 °F 63 °F 53 °F (1997)
Cooling Degree Days 9    
Growing Degree Days 24 (Base 50)    
Moisture  
Dew Point 65 °F    
Average Humidity 71    
Maximum Humidity 90    
Minimum Humidity 46    
Precipitation  
Precipitation 0.00 in - - ()
Sea Level Pressure  
Sea Level Pressure 29.84 in    
Wind  
Wind Speed 10 mph (SSE)    
Max Wind Speed 21 mph    
Max Gust Speed 26 mph    
Visibility 10 miles    
Events      
Averages and records for this station are not official NWS values.
T = Trace of Precipitation, MM = Missing Value Source: NWS Daily Summary

Daily Weather History Graph

Daily Weather History Graph

Search for Another Location

Airport or City:

Trip Planner

Search our weather history database for the weather conditions in past years. The results will help you decide how hot, cold, wet, or windy it might be!

Date:

Astronomy

May. 10, 2014 Rise Set
Actual Time 6:30 AM CDT 8:15 PM CDT
Civil Twilight 6:03 AM CDT 8:42 PM CDT
Nautical Twilight 5:30 AM CDT 9:15 PM CDT
Astronomical Twilight 4:56 AM CDT 9:49 PM CDT
Moon 4:24 PM CDT (5/10) 3:50 AM CDT (5/10)
Length of Visible Light 14h 39m
Length of Day
13h 45m
Waxing Gibbous, 82% of the Moon is Illuminated
May 10
Waxing Gibbous
May 14
Full
May 21
Last Quarter
May 28
New
Jun 5
First Quarter

Hourly Weather History & Observations

Time (CDT) Temp. Heat Index Dew Point Humidity Pressure Visibility Wind Dir Wind Speed Gust Speed Precip Events Conditions
12:53 AM 69.1 °F - 64.9 °F 87% 29.87 in 10.0 mi South 4.6 mph - N/A   Clear
1:53 AM 68.0 °F - 64.9 °F 90% 29.87 in 10.0 mi ESE 6.9 mph - N/A   Clear
2:53 AM 66.9 °F - 64.0 °F 90% 29.85 in 10.0 mi ESE 5.8 mph - N/A   Clear
3:53 AM 64.9 °F - 62.1 °F 90% 29.84 in 10.0 mi SSE 8.1 mph - N/A   Clear
4:53 AM 64.0 °F - 61.0 °F 90% 29.85 in 10.0 mi SSE 9.2 mph - N/A   Clear
6:53 AM 64.9 °F - 60.1 °F 84% 29.88 in 10.0 mi SSE 6.9 mph - N/A   Clear
7:53 AM 68.0 °F - 63.0 °F 84% 29.90 in 10.0 mi South 10.4 mph - N/A   Clear
8:53 AM 72.0 °F - 63.0 °F 73% 29.91 in 10.0 mi South 13.8 mph - N/A   Clear
9:53 AM 77.0 °F - 61.0 °F 58% 29.90 in 10.0 mi South 15.0 mph - N/A   Clear
10:53 AM 79.0 °F - 60.1 °F 52% 29.89 in 10.0 mi South 16.1 mph - N/A   Clear
11:53 AM 81.0 °F 81.7 °F 61.0 °F 50% 29.88 in 10.0 mi South 17.3 mph - N/A   Clear
12:53 PM 82.9 °F 83.2 °F 60.1 °F 46% 29.86 in 10.0 mi South 15.0 mph 24.2 mph N/A   Clear
1:53 PM 84.9 °F 86.1 °F 64.0 °F 49% 29.83 in 10.0 mi South 17.3 mph 25.3 mph N/A   Clear
2:53 PM 84.9 °F 87.6 °F 66.9 °F 55% 29.81 in 10.0 mi South 17.3 mph 24.2 mph N/A   Scattered Clouds
3:53 PM 84.0 °F 87.0 °F 68.0 °F 58% 29.79 in 10.0 mi SSE 20.7 mph - N/A   Scattered Clouds
4:53 PM 82.9 °F 85.8 °F 68.0 °F 60% 29.78 in 10.0 mi SE 19.6 mph 26.5 mph N/A   Clear
5:53 PM 82.0 °F 84.9 °F 68.0 °F 62% 29.77 in 10.0 mi SSE 15.0 mph 26.5 mph N/A   Scattered Clouds
6:53 PM 81.0 °F 84.1 °F 69.1 °F 67% 29.77 in 10.0 mi SSE 17.3 mph - N/A   Scattered Clouds
7:53 PM 78.1 °F - 69.1 °F 74% 29.78 in 10.0 mi SSE 11.5 mph - N/A   Clear
8:53 PM 75.9 °F - 68.0 °F 76% 29.79 in 10.0 mi SSE 9.2 mph - N/A   Clear
9:53 PM 73.9 °F - 68.0 °F 82% 29.80 in 10.0 mi SE 6.9 mph - N/A   Clear
10:53 PM 73.9 °F - 68.0 °F 82% 29.80 in 10.0 mi SE 11.5 mph - N/A   Clear
11:53 PM 75.0 °F - 68.0 °F 79% 29.79 in 10.0 mi SSE 12.7 mph - N/A   Clear